This demonstration page uses our WeatherBlox Daily Observations layout. Learn more.

39.08367, -84.50855

Hourly Observations for August 1, 2019

Temp ( °F °C ) Dew Point ( °F °C ) Humidity (%) Winds ( mph kmh ) Pressure ( in mb ) Visibility ( mi km ) Precip ( " mm )
12:53 am 00:53 Clear 69 20.6 65 18.3 87 87 Calm 30.09 1019 10 16.09344 0 0
1:53 am 01:53 Cloudy 71 21.7 65 18.3 81 81 Calm 30.09 1019 10 16.09344 0 0
2:53 am 02:53 Mostly Cloudy 68 20 65 18.3 90 90 Calm 30.06 1018 10 16.09344 0 0
3:53 am 03:53 Clear 66 18.9 64 17.8 93 93 Calm 30.06 1018 10 16.09344 0 0
4:53 am 04:53 Clear 65 18.3 63 17.2 93 93 ENE 3 6 30.06 1018 10 16.09344 0 0
5:53 am 05:53 Clear 64 17.8 63 17.2 96 96 Calm 30.06 1018 10 16.09344 0 0
6:53 am 06:53 Mostly Sunny 65 18.3 63 17.2 93 93 Calm 30.09 1019 10 16.09344 0 0
7:53 am 07:53 Sunny 67 19.4 65 18.3 93 93 Calm 30.09 1019 10 16.09344 0 0
8:53 am 08:53 Mostly Sunny 72 22.2 65 18.3 79 79 ENE 3 6 30.09 1019 10 16.09344 0 0
9:53 am 09:53 Mostly Sunny 76 24.4 68 20 77 77 VRB 5 7 30.09 1019 10 16.09344 0 0
10:53 am 10:53 Mostly Sunny 78 25.6 69 20.6 74 74 Calm 30.09 1019 10 16.09344 0 0
11:53 am 11:53 Mostly Sunny 82 27.8 70 21.1 67 67 E 5 7 30.09 1019 10 16.09344 0 0
12:53 pm 12:53 Mostly Cloudy 85 29.4 69 20.6 59 59 NNW 8 13 30.09 1019 10 16.09344 0 0
1:53 pm 13:53 Mostly Cloudy 86 30 64 17.8 48 48 Calm 30.09 1019 10 16.09344 0 0
2:53 pm 14:53 Sunny 88 31.1 59 15 38 38 Calm 30.06 1018 10 16.09344 0 0
3:53 pm 15:53 Mostly Cloudy 88 31.1 64 17.8 45 45 NE 3 6 30.03 1017 10 16.09344 0 0
4:53 pm 16:53 Mostly Sunny 88 31.1 62 16.7 42 42 Calm 30.03 1017 10 16.09344 0 0
5:53 pm 17:53 Mostly Cloudy 86 30 67 19.4 53 53 NE 8 13 30 1016 10 16.09344 0 0
6:53 pm 18:53 Mostly Cloudy 83 28.3 69 20.6 63 63 NE 9 15 30.03 1017 10 16.09344 0 0
7:53 pm 19:53 Partly Cloudy 82 27.8 68 20 63 63 ENE 6 9 30.03 1017 10 16.09344 0 0
8:53 pm 20:53 Mostly Cloudy 75 23.9 66 18.9 74 74 ENE 7 11 30.03 1017 10 16.09344 0 0
9:53 pm 21:53 Mostly Cloudy 73 22.8 66 18.9 79 79 Calm 30.06 1018 10 16.09344 0 0
10:53 pm 22:53 Partly Cloudy 71 21.7 67 19.4 87 87 Calm 30.06 1018 10 16.09344 0 0
11:53 pm 23:53 Clear 70 21.1 67 19.4 90 90 NE 3 6 30.09 1019 10 16.09344 0 0

Powered by AerisWeather